Wind_Speed
33 31 30 30 30 30 30 30 30 28 27 25 24 24 23 22 20 20 20 20 19 19 18 19 20 20 20 19 18 17 15 15 15 16 17 18 18 18 17 17 18 18 18 15 11 9 8 7 8 8 8 9 12 14 15 15 15 16 18 21 26 28 30 30 26 26 31 32 29 27 26 24 22 19 20 21 19 16 16 18 19 18 17 16 16 15 13
34 32 31 31 31 31 31 31 30 28 27 25 23 23 23 23 21 20 21 21 20 20 20 20 21 22 20 20 20 18 17 17 17 16 18 19 20 19 18 18 18 18 18 16 13 10 9 9 9 9 8 8 9 11 13 14 14 16 17 20 25 28 31 33 29 27 30 32 31 28 25 24 24 23 22 22 22 20 18 17 18 17 15 16 15 12 11
34 33 33 32 32 31 31 31 30 28 27 25 24 22 23 23 22 20 21 22 22 21 21 21 22 22 21 20 22 21 19 18 18 17 18 20 20 20 20 19 18 18 17 16 15 13 11 11 10 9 7 7 8 10 11 12 13 15 17 19 23 27 31 35 34 30 30 32 32 30 27 26 26 27 26 25 24 23 21 18 17 16 14 15 15 12 11
35 34 34 34 33 32 31 31 30 29 27 26 25 23 23 23 23 21 20 22 23 22 21 21 22 22 22 22 23 23 21 20 18 17 18 21 21 21 21 20 19 18 16 14 15 14 12 11 11 9 8 7 8 9 10 11 13 14 16 18 21 25 30 35 37 35 33 32 31 32 31 29 28 29 29 28 27 26 24 21 18 17 15 14 14 14 11
35 35 34 34 33 32 31 31 30 29 28 27 26 26 25 25 24 22 21 22 23 23 22 22 23 23 23 23 25 24 22 21 20 18 19 21 22 22 20 19 19 18 16 14 14 14 12 11 11 10 9 9 8 9 10 11 13 14 16 18 20 22 27 32 36 38 36 34 32 32 32 31 30 30 30 30 30 29 27 24 21 19 16 14 14 12 10
36 35 34 33 32 32 31 30 30 29 28 27 27 27 27 27 26 25 23 23 24 24 24 24 24 24 24 25 26 25 24 23 22 20 20 21 23 22 20 18 17 18 17 15 14 13 12 13 13 11 10 10 10 11 12 12 12 13 15 17 19 21 23 27 33 38 39 38 36 34 35 34 32 32 33 33 33 32 30 27 24 22 19 17 15 12 10
36 35 33 32 32 31 30 29 29 29 28 28 27 27 27 27 27 27 26 25 25 25 26 26 26 25 25 26 26 25 25 24 23 22 21 21 22 21 19 19 18 17 17 16 15 14 13 14 15 13 13 12 12 13 13 13 13 13 15 16 17 20 23 24 29 35 39 41 39 37 37 37 35 34 35 35 34 34 32 29 26 24 21 20 17 15 13
36 34 33 33 32 31 30 29 28 28 28 28 28 27 27 27 27 27 27 27 26 25 26 26 26 26 26 26 26 26 26 25 25 24 22 22 22 20 19 20 19 18 16 15 14 14 13 14 15 15 15 15 14 13 13 14 14 14 15 16 16 19 23 25 25 30 37 41 41 40 40 40 37 36 37 36 36 35 33 31 29 26 23 22 20 17 16
35 34 33 33 33 33 31 30 30 29 29 29 29 28 28 27 27 27 27 27 26 26 26 26 26 26 26 26 26 26 27 27 26 25 23 22 22 21 21 21 21 19 18 16 15 14 13 13 15 16 16 16 15 14 13 14 16 15 15 17 18 19 23 26 26 27 32 38 42 42 42 42 41 38 38 38 37 36 34 32 31 28 25 24 23 21 19
35 34 34 33 34 34 33 32 32 31 31 30 30 30 29 29 29 28 27 28 27 27 27 26 26 27 27 26 27 27 28 27 26 26 26 24 22 23 23 23 22 21 19 18 17 16 15 14 15 17 18 18 16 15 13 14 16 17 17 17 18 19 22 26 27 26 28 32 38 41 42 42 42 41 39 38 37 37 35 34 33 31 27 25 26 25 23
35 34 34 34 34 35 35 35 34 33 32 32 32 31 31 30 30 29 29 29 28 28 28 27 27 27 27 27 27 27 28 29 27 27 27 26 24 24 24 24 24 22 20 20 19 18 17 15 15 16 17 18 18 16 14 14 15 17 18 17 16 17 20 24 26 26 26 28 31 36 39 40 40 41 40 39 38 37 36 36 36 35 31 27 27 28 27
35 35 35 35 36 36 37 37 36 35 34 33 33 32 32 31 31 30 30 29 29 29 28 28 27 27 27 27 27 28 29 30 30 28 27 27 27 26 25 25 24 23 22 22 21 20 18 16 16 15 15 16 17 17 15 14 14 17 18 17 14 14 17 21 24 25 26 26 27 30 33 36 38 40 41 41 39 38 37 37 37 37 35 31 29 30 30
37 37 37 37 37 37 38 37 37 36 35 34 33 32 32 31 31 30 30 29 29 29 29 28 28 27 28 28 28 28 30 31 31 30 27 27 28 28 26 26 25 24 25 25 23 21 19 17 16 16 15 14 15 16 15 14 14 16 17 16 13 13 15 18 21 23 24 25 25 26 28 31 34 38 40 42 42 40 38 36 35 37 37 35 32 32 33
39 38 37 37 37 37 37 36 35 34 33 32 32 32 31 31 30 30 30 29 29 29 29 29 29 28 29 29 29 30 30 31 32 31 29 29 29 29 28 27 27 27 27 27 26 22 19 17 16 17 17 15 15 16 15 14 14 15 16 15 13 13 15 17 19 21 22 23 23 24 25 27 29 32 36 41 43 42 39 36 34 34 35 36 35 35 35
39 37 36 36 35 34 34 33 32 30 29 28 28 29 30 30 29 29 29 28 28 29 29 29 29 30 30 30 30 30 31 32 32 31 30 30 31 31 29 28 29 29 29 29 28 23 19 17 16 17 18 17 16 17 16 14 14 14 15 15 14 14 16 17 18 19 20 21 21 22 23 25 27 28 30 35 40 43 41 37 35 34 34 34 35 35 36
38 36 35 34 33 32 31 31 30 29 28 27 26 27 28 28 28 28 28 28 28 29 30 29 30 30 30 30 30 30 32 32 32 31 32 32 32 32 31 30 30 31 31 31 29 24 20 18 16 17 18 18 18 17 16 14 14 14 14 14 14 14 16 18 19 19 19 20 20 21 22 23 25 27 28 30 35 40 42 39 36 35 34 34 33 34 36
36 35 34 32 32 31 31 31 30 29 28 27 26 26 27 27 27 27 28 28 28 29 30 30 30 31 31 31 30 30 31 32 32 32 34 35 34 34 33 32 32 32 32 32 29 25 21 18 17 16 17 17 18 18 16 15 14 14 14 14 13 13 15 16 18 18 19 20 21 21 22 23 25 27 29 29 31 36 40 39 37 36 35 34 34 33 34
35 34 33 32 31 31 32 32 31 29 28 27 26 26 27 27 28 28 28 28 29 30 31 30 30 31 31 31 30 29 29 31 32 33 37 38 36 36 36 35 34 33 33 33 31 27 22 19 17 16 17 17 17 17 17 15 14 14 14 13 13 13 13 14 16 18 19 21 21 22 23 24 25 27 29 30 31 34 38 39 38 37 37 36 35 34 34
33 32 32 32 31 31 31 31 30 29 28 27 26 26 26 27 28 28 29 29 29 31 32 30 30 30 30 29 29 28 28 30 31 34 38 41 39 37 36 36 35 35 35 34 33 29 24 20 19 17 17 17 17 18 17 15 14 14 14 13 13 14 14 15 15 17 18 19 21 22 23 24 25 26 28 30 31 33 36 39 39 38 37 37 36 34 34
31 31 31 30 30 30 30 30 29 28 27 26 25 25 26 27 28 29 29 29 29 31 32 30 28 29 28 28 28 27 27 29 31 34 39 42 41 38 37 37 37 36 36 35 35 31 25 22 20 18 17 17 17 17 17 15 15 15 15 14 15 15 15 15 15 16 17 17 18 20 22 24 25 26 27 30 31 32 34 37 40 40 39 38 36 34 33
29 29 29 29 28 28 29 29 28 27 27 26 25 24 25 26 28 29 29 29 29 30 29 28 27 27 27 26 26 26 27 29 31 34 37 41 42 40 38 37 37 37 37 36 36 32 27 24 21 19 17 17 16 16 16 16 15 14 14 15 15 15 15 15 15 15 16 16 17 18 20 22 24 25 26 28 31 32 33 35 38 41 41 40 38 36 34
27 27 27 26 27 27 27 27 27 26 26 25 24 24 24 26 27 29 29 28 27 27 26 26 26 26 25 25 25 25 27 28 30 32 35 39 41 40 39 37 36 36 38 37 36 33 30 26 22 19 18 17 17 17 16 15 14 14 14 14 13 13 14 15 15 15 15 16 17 18 19 21 23 24 25 26 29 31 32 33 34 38 40 41 40 39 37
25 25 25 25 25 25 26 26 26 25 25 24 23 23 24 25 27 27 26 25 24 24 24 25 25 24 23 24 24 24 25 27 28 30 34 37 38 39 38 38 36 36 37 38 37 36 34 30 24 22 20 19 18 18 17 15 14 14 14 13 12 12 13 14 15 15 16 16 17 18 19 20 22 23 24 25 26 28 30 31 31 33 37 39 39 40 39
24 24 24 24 24 25 25 25 25 24 24 23 23 23 24 25 26 24 23 22 22 22 22 23 24 23 23 23 23 24 25 26 27 29 32 34 36 37 37 38 37 37 37 38 38 38 35 30 25 21 19 19 19 19 18 16 15 15 14 13 11 11 11 13 14 16 16 15 16 17 18 19 21 23 24 24 24 24 27 29 30 30 33 35 37 37 36
23 23 23 24 24 24 24 24 24 23 23 22 22 23 24 24 23 22 21 21 20 20 20 22 22 22 22 22 23 25 26 26 26 27 28 30 33 35 36 37 36 36 37 39 38 36 31 26 21 18 18 19 19 20 19 17 16 15 14 11 10 9 10 12 13 14 14 14 15 15 16 18 21 22 24 24 24 24 25 27 29 30 31 31 33 34 33
23 23 23 23 23 23 23 23 23 22 22 22 23 23 23 22 21 20 20 19 19 19 20 21 20 20 21 21 22 24 26 26 26 26 26 28 31 34 36 36 35 35 36 37 36 32 27 23 21 20 21 21 19 21 21 18 17 17 14 11 9 9 9 11 12 13 12 13 13 13 14 17 21 22 23 24 25 24 24 27 30 32 31 31 33 34 33
23 23 23 23 23 23 23 23 22 22 22 22 23 23 22 20 20 19 19 18 18 19 20 21 19 18 20 21 22 24 26 27 26 26 27 29 32 34 35 36 35 36 36 35 33 29 25 24 23 25 25 22 21 22 22 19 18 17 14 12 10 9 9 10 11 12 11 11 11 11 12 15 18 21 22 23 25 25 27 29 30 31 31 32 34 36 36
23 23 23 23 22 22 22 22 21 21 22 22 23 22 20 18 19 19 19 18 18 19 20 21 20 19 21 22 23 24 26 27 26 26 27 29 31 31 32 32 33 34 34 33 30 28 26 26 26 26 24 22 21 22 23 21 19 17 14 13 12 10 9 10 10 10 9 8 8 10 12 12 15 19 22 23 25 29 31 31 29 29 31 31 32 34 36
23 23 23 22 22 22 21 21 21 21 22 23 22 21 19 18 18 19 19 19 19 19 21 22 22 21 23 23 23 24 25 26 26 26 27 28 29 29 29 29 29 30 31 30 29 29 29 29 28 26 24 23 22 24 24 22 20 18 15 14 13 10 9 9 8 7 7 6 7 8 10 10 11 17 22 22 22 27 30 28 27 30 32 31 29 28 31
23 23 22 22 22 22 22 22 22 22 22 22 21 19 18 17 18 19 19 19 19 19 21 23 23 23 24 25 24 24 24 25 25 25 26 27 29 30 30 30 30 30 29 28 28 29 29 29 27 26 25 23 23 25 25 23 21 19 16 15 13 11 8 7 6 5 4 4 5 7 8 7 7 12 17 19 20 25 28 26 24 26 27 26 24 22 24
23 23 22 22 22 22 22 22 22 22 22 21 20 18 17 17 18 19 19 19 19 20 21 23 24 25 25 25 26 25 25 25 25 24 25 27 29 29 29 29 29 30 29 27 28 29 28 27 27 27 25 24 24 26 25 24 22 20 18 16 14 12 9 7 6 4 3 3 4 5 6 5 3 5 8 10 14 19 24 23 22 21 21 21 21 20 20
23 23 23 22 22 22 22 22 22 21 21 20 18 17 17 18 19 19 19 19 20 20 21 23 25 25 25 25 25 26 26 26 26 25 26 28 28 27 27 27 29 31 29 28 29 30 28 28 28 26 23 23 25 26 26 24 22 21 20 18 16 13 10 8 7 5 4 4 5 5 4 3 2 4 6 8 10 14 17 18 17 17 17 17 16 17 18
23 23 23 22 22 21 21 21 21 21 20 18 17 17 18 19 19 20 20 20 20 20 21 23 25 26 26 25 25 26 27 27 27 27 28 28 28 28 28 29 31 32 31 30 31 31 29 29 29 28 24 23 24 26 27 25 23 22 21 20 18 15 12 11 9 7 6 6 6 6 4 3 3 4 6 8 9 11 13 15 15 15 15 14 14 14 14
24 24 23 22 22 21 21 21 20 19 19 18 18 19 20 20 20 20 20 20 20 20 22 23 25 27 26 25 26 27 28 28 29 28 28 28 28 29 30 30 31 31 31 29 29 30 29 29 29 29 27 25 25 26 27 25 23 23 22 21 20 18 15 13 11 10 9 7 7 7 6 5 4 5 5 7 8 8 10 11 12 12 12 12 12 12 12
24 24 23 22 21 21 21 20 19 18 18 18 19 20 21 21 20 20 20 20 20 21 22 23 24 26 25 24 26 27 28 28 29 28 27 27 26 26 28 28 28 28 27 26 25 28 30 31 30 28 27 27 27 26 26 25 25 25 24 22 21 19 17 15 15 13 12 10 8 7 7 6 5 5 5 6 7 8 9 10 10 11 11 11 11 11 11
24 24 23 22 21 21 21 20 19 18 19 19 20 21 21 21 20 20 20 20 20 21 21 21 22 24 23 23 24 25 26 27 28 27 27 26 24 24 25 25 25 26 26 26 25 26 28 31 31 29 28 28 27 26 27 27 26 26 25 23 22 22 21 20 19 17 15 13 10 8 7 7 6 6 7 7 7 8 9 10 10 10 10 10 10 10 11
24 23 23 22 21 21 20 19 19 19 19 20 20 21 21 20 20 19 19 19 19 19 19 20 21 22 22 22 23 24 24 25 25 25 26 26 25 25 25 24 25 26 27 28 27 25 25 27 29 30 30 28 27 27 29 29 28 27 26 25 24 24 23 21 20 19 17 15 13 12 10 9 9 10 10 10 10 10 11 11 11 11 11 11 12 12 12
23 23 22 22 21 21 20 19 18 19 19 20 20 20 20 19 19 18 18 18 18 18 18 19 20 21 21 21 22 23 23 23 23 24 24 25 26 27 26 26 26 27 28 28 26 24 23 24 26 28 29 29 28 29 31 31 28 27 27 27 26 25 23 21 20 20 19 17 16 16 15 14 14 13 13 13 13 13 14 13 13 13 13 14 14 13 13
23 22 22 21 21 20 19 18 18 19 19 20 20 19 19 18 17 16 16 16 16 17 17 18 19 20 21 22 23 23 23 24 24 24 24 24 25 27 27 28 28 28 28 27 26 24 24 24 25 26 26 27 28 30 32 31 28 26 27 27 27 25 24 22 21 20 19 18 18 18 17 16 15 15 15 16 16 16 16 16 16 16 16 15 15 14 13
22 22 21 21 20 19 19 18 18 18 19 19 19 18 17 16 15 15 15 15 15 15 16 17 18 18 20 21 22 22 22 23 24 24 23 23 24 25 27 27 27 27 27 26 25 24 24 25 25 25 25 26 28 30 32 30 27 26 27 27 26 25 24 23 22 20 20 20 20 20 19 18 18 18 18 18 18 18 18 18 18 18 17 16 15 15 14
22 21 21 20 20 19 18 18 18 18 18 18 17 16 15 15 15 14 13 13 13 14 14 14 14 15 16 19 20 21 22 22 23 23 23 22 23 24 26 26 27 27 27 25 24 24 24 24 24 24 23 24 27 30 31 30 27 26 26 27 26 25 24 23 21 20 21 22 22 22 22 21 21 21 20 20 19 19 19 19 19 19 18 17 17 16 16
21 20 20 19 19 18 18 18 18 18 17 17 16 15 15 14 14 12 12 12 12 12 12 12 12 13 14 16 17 19 21 22 22 22 22 22 22 23 25 26 26 25 24 24 25 25 24 22 21 21 21 24 28 30 31 30 28 26 26 27 26 25 24 22 21 21 22 22 22 23 23 22 22 22 21 21 21 21 21 20 20 19 18 18 17 17 16
20 20 19 19 19 18 18 18 18 17 16 15 15 14 14 13 12 11 10 10 9 9 9 10 11 11 12 12 14 17 20 21 21 21 21 20 20 21 22 22 22 22 23 24 24 23 21 18 18 19 22 26 29 31 31 31 29 28 27 27 26 26 24 23 21 21 21 21 21 22 22 22 23 22 22 21 21 21 21 21 20 19 18 18 17 17 17
19 19 19 19 19 18 17 17 17 16 15 14 14 13 12 11 10 9 9 8 7 7 8 8 9 9 9 10 12 16 18 19 20 19 18 17 17 17 18 18 19 20 21 22 21 20 18 18 18 19 21 25 29 31 31 31 29 28 27 27 26 25 24 22 22 22 22 22 22 21 22 22 22 22 22 22 22 22 21 21 20 19 19 19 19 18 18
19 19 19 19 19 18 17 16 16 15 14 13 13 12 11 10 9 8 8 8 6 6 7 7 7 7 7 8 11 14 17 18 18 17 15 14 15 16 17 17 18 19 19 19 18 17 17 17 17 18 20 23 27 29 30 30 29 29 27 26 26 25 23 23 23 24 24 23 22 22 21 22 22 22 22 22 22 22 22 21 21 20 20 20 19 19 18
19 19 19 19 18 17 16 16 15 14 13 12 12 11 10 10 9 9 9 8 6 6 7 7 6 5 6 8 11 14 16 17 17 16 15 14 14 15 15 16 17 16 16 15 14 14 15 16 18 19 20 22 25 27 28 29 29 28 27 26 25 24 24 24 25 25 25 24 23 22 21 21 22 22 23 22 22 22 22 21 21 21 21 20 19 19 18
19 19 18 18 17 16 15 14 13 12 12 12 11 11 12 12 11 10 9 8 7 8 8 8 7 6 6 8 12 15 16 17 18 16 15 15 14 14 15 15 14 13 13 13 13 14 16 18 19 19 19 21 23 24 26 27 28 27 26 25 24 24 24 25 25 25 24 23 22 22 21 22 22 23 23 22 21 21 21 21 21 21 20 19 19 19 18
19 19 18 17 16 15 14 13 12 12 12 12 12 13 13 13 11 10 9 9 9 8 8 9 9 7 7 10 14 16 17 18 18 16 15 15 14 13 14 15 14 13 14 15 16 17 18 17 17 17 17 19 21 23 23 24 25 25 25 24 24 24 25 25 25 24 23 22 22 22 22 22 22 22 21 21 21 21 21 21 20 20 19 19 18 18 17
19 18 17 16 15 14 13 12 12 12 12 12 13 13 13 12 10 10 10 10 9 8 8 10 10 9 8 11 15 16 17 19 18 15 14 15 14 13 13 14 15 15 16 16 17 17 16 15 15 15 16 18 20 21 22 22 23 24 24 24 24 25 25 25 24 24 23 23 22 22 22 22 21 21 21 21 21 21 21 20 20 19 19 18 18 17 18
18 17 16 15 15 14 12 12 12 12 12 13 14 14 12 10 9 10 11 10 9 8 9 11 12 11 10 13 17 18 19 19 17 15 14 14 13 13 13 14 15 16 16 16 15 14 13 13 14 15 16 17 19 21 22 22 23 23 24 24 24 24 23 23 23 22 22 22 22 22 21 21 21 21 21 21 21 21 21 20 20 19 19 18 18 18 19
17 16 16 15 14 13 12 11 12 12 13 14 15 14 11 9 9 10 10 10 9 9 10 12 13 13 13 15 19 20 19 17 16 15 15 13 12 12 13 14 14 15 15 15 14 14 14 14 15 15 16 17 19 20 21 22 22 22 22 22 22 22 21 21 22 22 22 21 21 21 21 21 21 21 21 21 21 21 21 20 19 19 19 19 19 20 20
16 16 16 14 13 12 12 12 12 13 13 15 15 14 11 10 11 11 11 10 10 11 11 11 13 13 14 17 21 21 19 16 14 14 15 14 14 15 15 14 14 14 15 15 15 15 15 14 14 15 15 17 18 19 20 20 20 20 20 20 21 21 21 21 22 22 21 21 21 21 21 21 21 22 22 21 21 21 20 19 19 19 19 20 20 20 21
Wind_Direction
296 294 293 292 292 292 293 293 294 295 294 292 289 287 285 284 282 279 277 276 277 278 280 282 283 285 290 293 294 295 294 295 295 294 293 294 296 299 300 298 291 280 273 268 265 262 258 265 276 281 281 268 256 247 243 244 245 245 241 229 223 219 213 215 221 218 215 217 219 221 219 218 222 225 224 226 227 227 228 228 224 220 222 230 234 235 242
294 292 291 291 290 291 291 291 292 292 292 290 288 287 285 283 280 278 276 275 275 275 277 279 280 283 288 290 289 289 288 290 291 291 292 294 296 298 299 298 291 282 276 271 266 259 251 256 266 273 276 265 251 246 239 238 239 238 238 230 222 220 217 215 219 225 223 218 217 218 217 217 223 228 229 231 230 227 228 230 226 222 226 235 240 242 248
292 291 290 290 289 289 289 289 289 288 288 287 286 286 286 284 281 277 275 274 273 272 274 276 278 282 286 285 284 286 286 286 289 290 290 290 291 293 295 296 292 284 280 274 266 257 250 251 257 262 266 258 253 254 244 236 236 236 236 233 223 220 219 217 218 224 228 224 218 216 217 218 221 226 229 233 233 228 226 229 226 221 225 237 247 247 248
291 290 290 289 289 288 287 287 286 285 284 282 281 281 283 285 283 278 274 273 273 273 273 274 276 279 281 279 280 284 284 282 284 284 283 282 284 288 292 297 298 295 292 283 268 258 251 252 255 256 261 259 256 260 256 245 240 238 237 236 228 221 219 219 219 222 228 228 221 216 218 221 222 224 227 231 234 232 230 230 227 222 221 228 238 238 236
289 289 289 289 288 287 286 285 284 283 281 279 277 276 277 280 282 280 275 272 272 274 274 274 275 276 276 275 277 280 281 279 280 280 278 278 280 284 290 298 302 301 300 294 277 260 248 242 244 248 256 261 259 255 254 250 245 242 241 239 235 227 221 219 220 222 226 229 223 217 219 224 226 227 229 231 235 237 235 231 227 223 217 212 217 219 214
288 288 288 288 288 287 286 284 283 282 280 278 276 275 274 275 276 277 276 272 272 273 274 274 274 273 272 272 275 277 276 276 277 277 275 275 277 280 287 296 300 297 296 295 287 273 250 233 229 231 237 246 254 252 249 251 251 250 249 247 244 238 230 223 222 223 226 229 227 220 218 221 225 229 232 233 235 237 236 230 226 222 213 203 205 206 200
288 287 287 286 286 287 286 285 283 281 280 278 276 275 273 273 272 273 274 273 271 272 273 273 273 272 271 272 273 273 272 272 273 273 273 273 274 277 282 289 292 291 291 292 290 285 269 248 235 225 225 233 244 250 252 254 255 255 257 256 251 247 242 234 226 224 226 229 229 225 221 221 222 226 231 233 234 236 235 229 224 220 211 203 205 206 198
287 286 285 285 285 284 285 284 283 281 280 279 277 276 274 273 272 272 272 271 270 270 271 271 272 272 271 271 271 268 267 268 269 270 271 270 271 274 277 279 282 285 287 289 289 287 280 267 251 234 230 237 242 247 253 257 257 257 260 262 259 252 248 243 234 228 226 227 228 227 226 224 223 224 228 231 233 234 234 229 224 219 212 207 206 205 198
286 286 285 284 284 283 282 282 281 280 279 278 277 276 275 274 272 271 271 270 270 269 269 269 270 270 270 270 269 265 261 262 264 266 267 266 267 269 271 273 278 281 281 287 293 289 278 267 258 246 239 240 242 246 253 261 265 264 264 266 265 259 250 246 242 234 228 227 227 229 228 227 227 226 227 230 232 234 232 229 226 221 216 212 209 207 205
285 285 285 284 284 283 282 281 279 278 277 276 276 275 274 273 272 271 270 269 269 268 268 268 268 268 269 268 267 263 258 257 259 260 262 262 261 262 265 270 275 277 280 286 293 292 282 267 258 253 245 239 242 248 253 261 268 269 270 271 268 262 252 246 244 242 235 229 228 230 230 230 229 228 227 229 232 234 233 229 227 225 220 215 212 212 213
284 285 284 284 284 284 283 282 280 278 276 274 273 272 271 270 270 270 269 269 268 268 268 268 267 266 266 266 265 263 257 255 256 256 257 259 258 257 261 266 270 274 278 282 285 288 287 278 268 261 249 239 240 247 252 259 267 271 275 277 270 258 249 244 243 245 244 237 232 231 232 233 232 230 228 228 231 234 234 230 227 226 224 218 215 217 219
283 284 284 283 283 283 282 281 280 278 276 274 272 271 269 268 266 266 267 267 267 267 267 267 266 265 265 264 263 262 256 253 254 255 254 254 256 257 260 264 268 272 273 275 279 283 287 286 281 274 259 242 239 245 252 260 268 274 278 280 270 252 241 239 240 243 247 246 241 236 234 234 234 233 230 229 230 234 234 231 228 227 227 223 218 219 223
283 283 282 282 282 281 280 279 278 277 276 274 272 271 269 267 265 264 264 264 265 265 265 265 265 265 264 263 261 259 255 251 252 254 253 251 252 255 259 263 267 268 269 272 276 281 288 292 291 286 275 253 240 244 253 261 268 274 278 279 268 246 233 233 237 242 247 249 249 245 239 236 236 236 233 230 230 232 233 233 232 231 230 227 222 223 227
282 281 281 280 280 279 278 278 277 277 276 275 273 271 269 267 265 264 263 263 263 263 263 264 264 264 263 262 260 257 254 250 249 252 253 252 251 252 254 259 262 263 265 269 273 279 288 294 296 296 289 268 247 243 249 256 264 272 277 277 266 245 231 229 234 239 244 248 251 251 247 242 238 237 236 232 229 228 229 231 233 234 235 232 228 227 230
280 280 280 279 278 278 277 277 277 277 277 275 273 272 269 267 265 264 263 261 261 262 263 263 264 264 263 262 259 255 251 247 245 248 250 251 250 250 251 254 257 259 261 265 271 277 284 289 294 297 293 278 256 246 247 254 263 271 276 276 266 250 237 232 232 236 240 245 251 252 251 249 244 240 237 233 228 226 227 230 232 235 238 237 234 231 230
278 278 277 276 276 276 275 276 277 277 276 275 273 272 270 268 266 263 262 261 261 262 264 264 265 265 263 262 258 253 248 244 241 242 246 247 246 247 249 251 254 256 259 263 268 273 279 284 289 291 289 278 260 250 249 254 263 270 274 274 268 255 245 240 239 240 241 244 249 251 252 252 248 242 238 235 230 226 225 228 231 233 237 239 238 235 232
276 275 275 274 273 274 274 275 276 276 275 274 273 272 270 268 266 264 262 262 262 264 264 265 266 266 264 262 258 253 247 242 238 238 242 244 243 243 245 249 252 255 258 261 266 271 275 280 284 286 286 276 260 251 250 253 260 268 271 271 268 258 251 246 245 246 246 247 248 250 250 251 249 244 239 236 232 227 225 227 230 232 235 238 240 239 236
273 272 272 271 271 272 273 274 275 275 275 274 272 270 269 268 266 265 264 264 264 266 267 266 266 266 264 262 259 254 247 241 236 236 239 242 243 241 243 247 250 254 258 261 264 268 272 277 281 283 283 275 259 251 250 252 258 265 267 266 266 261 254 248 245 245 246 247 247 248 248 248 248 246 241 237 232 227 226 228 229 230 231 234 237 239 240
271 270 269 270 270 271 272 273 273 273 273 272 271 269 268 268 267 266 266 266 267 269 269 268 267 265 263 261 258 255 249 242 235 233 236 240 241 240 241 245 249 253 258 261 263 266 270 277 282 283 282 275 260 251 251 254 257 261 263 263 263 261 256 250 247 246 247 249 249 249 248 247 246 245 242 238 233 228 227 228 229 229 230 232 234 237 239
269 268 268 269 270 270 270 271 272 272 272 271 270 269 268 269 269 268 268 268 269 270 270 269 266 263 260 258 256 254 250 243 236 231 232 237 240 240 239 241 246 251 256 260 263 266 270 276 279 280 281 275 260 250 251 254 254 258 262 263 261 260 256 252 250 250 250 252 253 251 249 248 246 244 241 238 234 230 227 228 229 231 231 231 231 233 236
267 267 268 268 269 269 270 270 271 271 271 271 270 269 269 269 269 270 271 272 271 270 268 266 263 260 258 257 255 253 248 243 237 232 231 235 239 240 239 239 243 248 253 258 261 264 268 273 274 274 276 272 258 248 248 251 252 255 259 260 260 259 255 250 249 251 252 253 255 254 252 250 248 244 240 237 234 231 229 228 230 231 232 232 232 233 235
266 266 267 268 269 269 270 270 270 271 271 271 270 269 268 268 270 272 274 273 270 267 265 263 261 259 257 255 253 251 248 244 239 234 232 234 238 241 242 242 243 246 251 256 260 264 268 270 268 267 271 269 256 246 245 246 250 252 254 257 259 256 252 249 250 252 253 253 256 257 255 252 249 244 240 237 234 232 230 229 229 230 231 232 233 234 236
265 265 266 267 269 269 270 270 271 271 271 271 270 269 269 271 273 274 273 271 267 264 262 260 259 256 254 252 251 250 248 245 240 233 231 233 238 241 243 244 244 245 249 253 258 262 265 265 262 262 268 266 255 245 241 241 245 248 251 256 260 256 253 251 250 251 252 254 257 260 259 256 250 243 239 235 232 232 232 230 229 230 232 233 234 235 237
263 264 265 267 268 269 270 270 271 271 271 270 270 271 273 274 274 272 269 266 264 262 259 257 256 254 251 250 249 248 247 245 239 234 231 232 236 240 243 244 245 245 247 250 253 257 260 260 257 258 265 264 254 245 239 236 238 242 247 254 260 259 256 253 251 251 255 258 261 261 256 251 246 241 235 230 227 226 228 228 227 228 230 232 234 236 238
262 263 265 267 268 269 269 269 270 270 270 270 272 274 276 275 272 267 265 263 261 259 257 255 253 252 251 248 246 246 247 245 240 236 234 232 235 239 242 243 244 245 246 248 251 253 254 251 247 250 262 265 255 243 236 233 233 237 241 247 253 259 259 255 251 253 257 261 262 260 254 247 242 235 230 225 219 216 219 223 224 224 225 228 232 235 236
263 264 265 266 267 268 268 268 268 268 269 271 275 277 276 273 268 264 263 262 260 258 256 254 253 252 252 249 245 245 246 245 241 237 235 235 236 238 241 243 245 245 246 248 251 252 247 240 240 250 262 264 253 240 233 230 229 232 235 238 247 260 264 256 250 251 254 256 259 264 265 254 243 234 228 222 215 211 213 214 215 217 219 222 227 231 232
262 264 265 266 267 267 267 266 267 267 270 273 277 277 274 269 266 265 262 260 259 257 256 256 254 252 251 249 246 244 244 244 242 238 236 237 239 240 242 244 245 247 248 249 250 248 238 231 241 254 258 255 246 237 230 226 226 229 231 235 246 260 264 257 251 250 254 257 263 275 279 264 245 234 227 219 212 210 207 201 200 206 212 215 221 226 227
261 263 264 265 266 266 266 265 266 268 272 276 277 274 269 264 264 265 264 261 258 255 256 257 255 251 250 249 246 244 244 244 242 239 237 238 241 244 245 245 245 246 247 247 246 242 235 235 246 253 248 240 237 234 228 224 223 224 226 233 244 255 259 258 257 257 259 263 272 283 289 273 245 230 225 222 216 210 204 197 195 200 202 202 204 210 214
260 261 263 264 265 265 265 265 267 270 274 276 275 271 265 262 261 262 263 263 261 257 257 258 255 252 250 249 248 247 247 246 244 241 239 239 241 242 242 240 240 241 243 243 241 238 238 243 248 243 233 228 229 229 226 222 219 218 222 230 240 248 254 255 256 258 263 269 273 282 289 279 247 230 229 226 213 195 189 189 192 195 196 195 195 196 199
258 259 261 262 264 264 265 266 269 272 275 275 273 268 264 262 261 261 261 262 262 260 259 258 256 253 251 250 249 248 249 249 246 243 241 239 238 237 236 236 237 239 241 242 238 235 239 245 241 229 222 222 223 224 224 220 215 215 220 227 234 241 245 245 240 238 252 270 270 273 280 276 248 230 227 222 206 188 182 182 182 181 184 188 189 184 183
257 257 259 261 263 264 265 267 270 273 275 274 270 267 265 264 263 263 262 263 262 261 260 259 258 255 253 251 250 248 248 249 247 245 243 241 238 236 235 235 236 237 239 240 237 236 240 242 232 222 220 220 219 221 223 218 212 212 217 222 229 235 235 231 222 208 204 234 249 261 273 271 239 207 199 193 187 186 185 183 182 181 181 181 179 174 172
255 256 258 260 262 263 265 268 272 274 274 271 268 266 265 264 264 264 264 263 261 260 259 258 258 257 254 252 252 250 248 248 247 245 242 241 240 238 233 232 234 235 235 237 236 236 239 238 228 220 220 219 216 219 221 216 210 210 212 217 224 227 224 221 218 201 182 191 210 231 257 261 209 167 150 142 148 159 163 163 166 173 176 175 172 170 171
254 254 256 259 261 263 266 269 272 273 272 268 266 264 264 264 265 265 265 263 261 259 258 257 259 259 256 253 252 250 248 247 246 244 242 240 239 237 233 232 234 235 236 238 238 236 237 237 229 224 224 223 218 218 218 214 209 207 208 212 219 221 218 215 214 206 193 190 195 202 205 194 174 161 146 136 137 143 145 145 147 151 156 158 159 161 165
252 253 254 257 260 262 265 269 271 271 268 265 263 264 265 266 266 265 265 264 262 260 259 259 259 260 258 255 252 250 248 247 246 245 243 240 238 236 235 235 236 237 239 242 241 236 233 231 228 226 228 227 221 218 216 212 208 206 206 209 213 217 217 215 215 215 210 205 200 195 187 175 167 165 154 141 139 142 145 146 146 147 151 155 157 161 166
251 251 253 256 259 261 265 268 269 267 264 263 264 266 267 267 267 267 266 266 264 262 261 260 260 260 259 255 252 249 247 246 244 242 241 238 235 234 234 234 235 236 236 236 235 234 232 229 227 227 229 228 223 219 216 213 210 209 208 208 210 213 214 216 218 219 217 214 210 203 192 177 165 167 170 162 156 156 159 160 160 160 162 165 171 176 180
249 249 251 254 258 261 265 267 265 263 262 264 267 269 268 268 269 269 268 268 266 265 263 260 258 258 257 253 250 248 246 244 242 239 237 234 231 230 231 230 230 233 234 232 232 234 233 228 226 227 229 228 224 218 214 213 211 210 209 209 209 210 211 214 218 221 219 216 215 214 210 199 188 187 192 191 186 183 184 183 183 183 183 186 196 202 203
247 248 250 253 257 261 264 263 261 261 264 267 269 269 270 271 272 271 270 269 266 264 261 257 255 255 254 251 248 247 244 242 240 237 234 231 227 226 228 228 226 229 232 232 231 231 228 224 222 225 228 227 223 216 212 210 210 208 207 208 210 210 210 212 217 221 222 219 217 219 219 217 214 212 210 208 206 206 208 207 206 207 209 212 217 220 219
247 247 249 252 256 260 261 260 259 262 265 268 269 270 271 273 274 273 271 269 265 262 259 256 253 253 252 248 246 245 242 238 235 233 231 228 224 223 226 227 227 227 230 231 229 225 222 221 223 226 227 225 220 214 208 206 207 207 206 208 210 211 210 210 213 217 220 219 218 218 219 220 221 222 222 220 221 221 222 224 225 227 228 226 225 224 224
246 246 248 251 256 258 257 257 258 262 266 268 269 271 273 274 274 272 269 266 263 260 257 254 253 252 249 246 243 242 239 235 232 230 228 226 224 224 225 228 229 230 232 232 229 223 222 225 228 227 222 217 212 208 204 203 203 205 206 208 210 211 211 212 213 214 215 216 218 220 220 220 223 225 226 226 228 229 230 231 232 233 233 230 228 227 227
244 244 247 250 253 254 253 253 257 261 265 267 270 273 275 274 271 267 265 263 263 260 258 258 258 255 251 247 244 241 237 235 232 230 227 224 222 222 224 226 228 230 232 231 228 224 225 227 225 219 212 207 204 202 200 200 201 202 205 208 210 210 212 214 215 215 215 218 221 222 221 219 218 218 220 222 225 227 228 230 231 232 233 232 230 230 231
242 243 246 248 249 248 248 251 255 259 262 266 270 272 272 269 266 265 265 265 265 263 262 262 263 259 253 248 242 236 232 229 227 225 225 222 219 221 223 224 226 228 229 228 226 226 226 224 217 209 204 203 201 199 200 200 200 200 204 209 210 211 212 213 215 216 217 218 220 222 222 220 218 216 217 218 220 222 224 226 227 229 231 231 232 232 233
241 242 243 244 243 243 245 249 254 257 260 264 267 266 264 262 262 264 266 265 263 262 259 258 257 254 251 248 241 232 228 225 221 219 221 221 220 221 223 222 223 225 224 222 222 223 222 219 212 206 202 202 201 200 201 201 199 199 204 209 211 212 213 213 214 216 216 218 220 222 223 224 223 221 219 218 219 220 222 224 226 227 228 230 232 235 240
238 239 239 238 239 242 245 248 252 256 259 262 262 260 258 258 258 260 261 259 256 256 255 254 254 252 247 242 234 227 224 223 220 217 217 218 219 219 219 218 216 215 213 213 216 218 218 215 209 203 202 202 201 201 201 201 199 199 204 208 211 212 214 215 217 218 219 220 221 223 224 226 226 225 223 221 220 220 221 223 224 224 226 230 234 239 245
235 234 234 235 237 241 244 247 251 254 257 259 258 255 252 251 253 254 255 253 253 256 256 254 254 250 241 233 227 220 214 212 211 209 208 209 208 206 205 204 203 202 204 207 211 214 215 212 206 202 201 201 200 200 201 200 199 200 204 209 212 214 215 217 219 221 222 223 223 224 225 227 228 228 226 224 222 221 222 223 224 225 227 231 236 241 245
231 229 230 233 237 241 243 246 250 253 254 256 254 248 243 245 251 253 249 247 249 252 251 248 246 240 229 222 219 213 205 198 194 192 193 195 194 192 193 196 198 201 204 207 209 209 208 205 201 199 200 200 199 199 199 199 199 201 205 210 214 216 217 219 220 222 223 224 225 226 227 227 228 228 228 226 224 223 222 223 224 226 229 233 237 240 242
226 226 229 232 236 239 243 246 250 251 251 249 244 236 232 237 241 241 239 239 236 232 235 239 238 233 225 214 205 201 195 187 180 179 183 185 185 188 192 194 196 198 202 203 203 202 201 199 199 200 200 200 200 199 198 197 198 201 206 211 215 217 219 220 222 223 225 227 229 230 230 228 227 226 226 226 225 224 223 224 225 228 231 234 236 237 238
224 226 229 232 235 238 242 245 247 248 245 238 229 222 222 228 230 226 224 226 222 220 225 230 229 230 225 208 196 193 188 180 173 173 177 179 179 184 190 190 188 190 193 193 193 196 200 202 203 203 201 199 199 198 197 197 199 203 207 212 216 217 219 221 224 226 229 230 231 232 231 229 227 225 225 224 224 224 224 225 227 230 232 235 235 237 239
225 226 228 231 234 238 241 242 243 243 238 226 217 214 218 224 226 221 215 215 216 215 217 221 222 222 216 201 194 190 184 177 170 167 170 174 177 181 185 185 186 189 191 192 195 199 203 204 203 201 197 195 194 195 196 197 200 204 208 212 214 217 220 224 227 230 232 233 232 231 231 229 228 226 225 224 225 225 226 228 230 232 234 235 236 240 245
226 226 227 229 233 237 239 238 238 237 230 217 210 211 215 220 221 216 210 209 210 208 208 213 217 217 210 200 191 183 177 176 173 168 168 175 179 179 179 182 186 189 193 197 202 205 205 202 198 195 191 190 191 193 196 198 201 204 207 211 214 218 222 226 230 233 234 233 232 231 230 229 228 226 225 225 226 227 228 230 232 233 234 236 240 245 251
224 225 227 228 231 234 236 234 231 229 221 209 204 207 211 217 220 216 210 208 208 208 209 209 210 208 203 195 186 177 173 176 178 176 175 177 177 177 182 189 192 194 196 201 204 202 199 194 192 190 187 187 190 193 196 199 203 206 210 213 216 219 223 226 228 230 231 232 231 230 229 227 226 226 226 226 227 228 229 231 233 233 235 240 246 251 257
222 224 226 228 229 232 232 228 225 222 214 204 201 204 208 214 220 219 212 208 210 214 213 209 206 204 198 190 184 178 174 174 179 183 184 183 182 187 193 197 198 199 200 202 202 198 195 194 193 192 191 192 194 197 200 203 207 210 213 215 218 220 222 224 225 226 227 228 227 226 225 225 225 226 227 227 228 229 230 232 233 236 240 246 252 257 263
221 224 226 226 227 229 226 221 218 216 208 201 201 203 206 211 219 220 215 210 211 213 209 204 202 200 194 188 184 181 176 174 179 183 183 184 191 198 201 200 199 200 203 204 203 201 200 199 199 198 198 198 200 202 204 207 210 213 215 218 220 221 223 224 225 225 225 225 224 223 223 224 226 227 228 228 229 230 231 233 236 241 246 251 256 261 267
Height
5837 5836 5835 5834 5833 5832 5831 5830 5829 5829 5828 5827 5826 5825 5825 5825 5825 5825 5824 5824 5823 5823 5823 5822 5821 5820 5820 5820 5820 5819 5819 5818 5818 5817 5817 5816 5816 5816 5816 5815 5814 5814 5813 5814 5815 5815 5815 5815 5814 5814 5814 5813 5813 5812 5812 5813 5813 5814 5815 5817 5818 5819 5821 5822 5822 5822 5822 5825 5827 5828 5829 5830 5831 5833 5835 5836 5837 5839 5840 5842 5843 5845 5846 5846 5847 5849 5851
5833 5832 5831 5830 5829 5828 5827 5826 5826 5825 5824 5824 5823 5822 5821 5821 5822 5822 5821 5820 5820 5820 5819 5819 5818 5817 5818 5817 5816 5816 5816 5815 5815 5815 5814 5814 5813 5813 5814 5813 5813 5812 5811 5812 5813 5813 5814 5813 5813 5813 5812 5812 5812 5812 5811 5811 5812 5812 5813 5814 5815 5817 5818 5820 5821 5821 5821 5822 5824 5826 5827 5828 5830 5832 5834 5835 5836 5838 5840 5841 5842 5844 5845 5846 5847 5848 5849
5828 5827 5826 5825 5825 5824 5823 5822 5822 5822 5821 5820 5819 5818 5817 5817 5818 5818 5817 5817 5816 5816 5816 5816 5815 5814 5814 5814 5813 5813 5813 5812 5812 5813 5812 5812 5811 5811 5811 5811 5811 5810 5810 5810 5811 5811 5812 5812 5812 5811 5811 5811 5811 5810 5810 5810 5810 5811 5811 5812 5813 5815 5816 5817 5819 5819 5820 5821 5823 5824 5825 5827 5828 5830 5832 5833 5835 5837 5839 5840 5841 5843 5844 5846 5847 5848 5848
5823 5822 5822 5821 5820 5820 5819 5818 5818 5818 5817 5817 5816 5815 5814 5813 5813 5814 5814 5813 5812 5813 5813 5813 5812 5811 5811 5810 5809 5809 5810 5810 5810 5811 5810 5810 5809 5809 5809 5809 5809 5809 5809 5809 5809 5810 5810 5811 5810 5810 5810 5810 5810 5809 5809 5808 5808 5809 5809 5810 5811 5812 5814 5815 5816 5817 5818 5820 5821 5822 5823 5825 5826 5828 5830 5831 5833 5835 5837 5839 5840 5842 5843 5845 5846 5846 5847
5818 5818 5817 5816 5815 5815 5815 5814 5813 5813 5813 5813 5812 5811 5811 5810 5809 5810 5810 5810 5809 5809 5809 5809 5809 5808 5808 5807 5806 5806 5807 5807 5807 5808 5808 5807 5807 5807 5808 5808 5807 5807 5807 5807 5807 5807 5808 5808 5808 5809 5809 5809 5809 5808 5808 5807 5807 5807 5807 5808 5809 5810 5812 5813 5814 5815 5816 5817 5818 5820 5821 5823 5824 5826 5828 5830 5831 5833 5835 5837 5839 5840 5842 5844 5845 5845 5846
5813 5813 5812 5811 5810 5810 5810 5809 5809 5809 5809 5808 5808 5807 5807 5806 5805 5805 5806 5806 5806 5805 5805 5805 5805 5805 5804 5803 5803 5803 5803 5804 5804 5805 5806 5806 5805 5805 5806 5806 5806 5805 5805 5805 5804 5805 5806 5806 5806 5806 5807 5807 5807 5806 5806 5806 5805 5805 5805 5806 5807 5808 5810 5811 5812 5812 5813 5814 5816 5817 5819 5820 5822 5824 5826 5828 5830 5831 5833 5835 5837 5839 5841 5843 5843 5844 5845
5808 5807 5807 5806 5806 5805 5805 5805 5805 5804 5804 5804 5803 5803 5802 5802 5801 5801 5801 5802 5802 5801 5801 5801 5801 5801 5801 5800 5800 5800 5800 5800 5801 5802 5803 5803 5803 5803 5804 5804 5804 5803 5803 5803 5803 5803 5803 5803 5804 5804 5804 5805 5805 5804 5804 5804 5804 5804 5804 5804 5805 5806 5807 5808 5810 5810 5810 5812 5814 5815 5816 5818 5820 5822 5824 5826 5828 5829 5831 5833 5835 5837 5840 5841 5842 5843 5844
5802 5802 5802 5801 5800 5800 5801 5800 5800 5800 5800 5799 5799 5798 5798 5798 5797 5797 5797 5797 5797 5797 5797 5797 5797 5797 5797 5797 5797 5797 5797 5797 5798 5799 5800 5800 5800 5801 5802 5802 5801 5801 5801 5801 5801 5801 5801 5801 5802 5802 5802 5802 5802 5802 5802 5802 5802 5802 5802 5802 5803 5803 5804 5805 5807 5808 5808 5809 5811 5813 5814 5816 5818 5820 5822 5824 5826 5827 5829 5831 5833 5836 5838 5840 5841 5842 5843
5797 5797 5796 5796 5795 5795 5796 5796 5796 5795 5795 5795 5794 5794 5794 5793 5793 5793 5792 5792 5792 5793 5793 5793 5793 5793 5793 5793 5793 5793 5793 5794 5795 5795 5796 5798 5797 5798 5799 5799 5799 5799 5799 5799 5799 5798 5798 5799 5799 5799 5800 5800 5801 5801 5801 5800 5800 5800 5801 5800 5800 5801 5801 5801 5803 5805 5806 5807 5809 5811 5812 5814 5815 5818 5820 5822 5824 5825 5827 5829 5831 5834 5836 5838 5839 5841 5842
5792 5792 5791 5791 5790 5790 5790 5790 5791 5791 5790 5790 5789 5789 5789 5789 5788 5788 5788 5787 5788 5788 5788 5788 5789 5789 5789 5789 5790 5790 5790 5790 5792 5792 5793 5794 5795 5795 5795 5796 5796 5796 5796 5796 5796 5796 5796 5796 5796 5797 5797 5798 5799 5799 5799 5799 5798 5798 5798 5798 5798 5798 5798 5798 5800 5801 5803 5805 5807 5809 5811 5812 5813 5816 5818 5820 5821 5823 5825 5827 5829 5831 5834 5836 5838 5839 5841
5787 5786 5786 5786 5785 5784 5784 5784 5785 5785 5785 5785 5784 5784 5784 5784 5784 5783 5783 5783 5783 5783 5783 5784 5784 5784 5785 5785 5786 5786 5786 5786 5788 5789 5789 5790 5791 5792 5792 5793 5793 5794 5794 5793 5793 5793 5793 5793 5794 5794 5795 5795 5797 5797 5798 5797 5797 5796 5795 5795 5795 5794 5795 5796 5797 5798 5800 5802 5804 5806 5808 5810 5812 5814 5816 5818 5819 5820 5822 5824 5826 5828 5831 5834 5836 5837 5839
5781 5781 5781 5780 5780 5779 5778 5778 5779 5779 5780 5779 5779 5778 5778 5779 5779 5778 5778 5778 5778 5778 5778 5779 5779 5780 5781 5781 5782 5782 5782 5782 5783 5785 5786 5787 5787 5788 5789 5790 5790 5791 5791 5790 5790 5791 5791 5791 5791 5792 5792 5793 5794 5795 5795 5795 5795 5794 5793 5793 5792 5792 5792 5793 5795 5796 5797 5799 5801 5803 5805 5807 5809 5810 5813 5815 5816 5818 5820 5821 5823 5825 5828 5831 5833 5835 5836
5776 5776 5775 5774 5774 5773 5772 5772 5773 5773 5774 5774 5773 5773 5773 5773 5773 5773 5773 5773 5773 5773 5773 5774 5775 5775 5776 5777 5778 5778 5778 5778 5778 5780 5782 5783 5784 5785 5786 5787 5787 5788 5787 5787 5788 5788 5789 5789 5789 5789 5790 5791 5792 5793 5793 5793 5793 5792 5791 5791 5790 5790 5791 5792 5793 5794 5795 5796 5798 5800 5802 5804 5806 5807 5809 5812 5814 5816 5817 5819 5820 5822 5825 5828 5831 5832 5834
5770 5770 5769 5768 5768 5767 5767 5766 5767 5767 5768 5768 5768 5767 5767 5768 5768 5768 5768 5768 5768 5767 5768 5769 5770 5770 5771 5772 5772 5773 5773 5774 5775 5776 5778 5779 5780 5782 5783 5784 5784 5784 5784 5784 5785 5786 5786 5787 5787 5787 5787 5789 5790 5791 5791 5791 5791 5791 5790 5789 5789 5789 5790 5791 5791 5792 5793 5794 5795 5797 5799 5801 5802 5804 5806 5808 5810 5812 5814 5815 5817 5819 5821 5825 5828 5830 5832
5764 5764 5764 5763 5762 5762 5761 5761 5761 5762 5763 5763 5763 5762 5762 5762 5763 5763 5764 5764 5764 5763 5763 5764 5764 5765 5766 5766 5767 5768 5769 5770 5771 5772 5774 5775 5776 5778 5779 5780 5780 5780 5781 5781 5782 5783 5784 5785 5785 5785 5785 5786 5787 5788 5789 5789 5789 5790 5789 5788 5787 5788 5788 5789 5790 5791 5791 5792 5793 5794 5795 5797 5799 5801 5803 5805 5806 5808 5810 5813 5815 5817 5819 5821 5824 5827 5829
5758 5758 5758 5757 5757 5757 5756 5756 5757 5757 5758 5758 5759 5758 5757 5758 5758 5759 5759 5759 5759 5758 5758 5759 5759 5760 5761 5761 5762 5763 5764 5765 5767 5769 5769 5771 5772 5773 5775 5776 5776 5777 5777 5778 5779 5780 5782 5782 5783 5783 5783 5784 5785 5785 5786 5787 5787 5788 5787 5786 5786 5786 5786 5787 5788 5789 5790 5790 5790 5791 5792 5794 5795 5797 5799 5801 5803 5805 5807 5810 5813 5815 5817 5819 5821 5824 5826
5752 5753 5752 5752 5752 5752 5751 5751 5752 5752 5753 5754 5754 5753 5753 5753 5753 5754 5754 5754 5754 5754 5753 5754 5754 5754 5755 5756 5757 5759 5759 5760 5763 5764 5765 5766 5768 5769 5770 5771 5773 5773 5774 5775 5776 5777 5779 5780 5781 5781 5781 5781 5782 5783 5784 5785 5785 5786 5785 5785 5784 5784 5784 5785 5786 5787 5787 5788 5788 5789 5790 5791 5792 5794 5796 5797 5799 5802 5805 5807 5810 5812 5814 5816 5818 5821 5823
5747 5747 5747 5747 5747 5747 5746 5746 5747 5748 5748 5749 5749 5749 5749 5749 5749 5749 5749 5750 5750 5748 5748 5749 5750 5750 5750 5750 5751 5754 5755 5756 5758 5760 5760 5760 5763 5765 5767 5768 5769 5770 5771 5772 5773 5774 5776 5777 5778 5779 5779 5779 5779 5780 5781 5782 5783 5784 5783 5783 5783 5782 5783 5783 5784 5784 5785 5785 5785 5786 5786 5787 5789 5791 5792 5794 5796 5799 5802 5804 5806 5809 5811 5813 5816 5818 5821
5742 5742 5742 5741 5742 5742 5742 5741 5742 5743 5743 5744 5745 5745 5744 5744 5744 5744 5744 5745 5745 5744 5743 5745 5746 5745 5745 5746 5746 5748 5750 5752 5753 5755 5755 5755 5757 5761 5763 5765 5766 5767 5768 5769 5770 5771 5773 5775 5776 5776 5776 5776 5777 5778 5779 5780 5781 5781 5781 5781 5781 5780 5780 5781 5781 5782 5782 5782 5782 5783 5783 5784 5786 5787 5788 5790 5793 5796 5798 5800 5802 5805 5807 5810 5813 5816 5818
5737 5737 5737 5737 5737 5737 5737 5736 5737 5738 5739 5739 5740 5741 5740 5740 5739 5739 5739 5740 5740 5739 5738 5740 5741 5740 5741 5741 5742 5743 5745 5747 5749 5750 5751 5751 5752 5756 5759 5761 5763 5764 5765 5766 5767 5768 5771 5772 5773 5774 5774 5774 5774 5775 5777 5778 5778 5779 5779 5779 5779 5778 5778 5778 5779 5779 5779 5779 5780 5780 5780 5781 5782 5784 5785 5787 5790 5792 5794 5796 5798 5801 5804 5807 5810 5813 5816
5732 5732 5732 5732 5732 5732 5732 5732 5732 5733 5734 5735 5736 5736 5736 5736 5735 5735 5735 5735 5736 5735 5734 5735 5736 5736 5736 5737 5738 5739 5741 5742 5743 5745 5747 5747 5748 5751 5755 5757 5759 5761 5762 5763 5764 5765 5768 5769 5771 5771 5772 5772 5772 5773 5774 5775 5776 5777 5777 5777 5776 5776 5776 5776 5776 5776 5777 5777 5777 5777 5777 5778 5779 5781 5782 5784 5786 5788 5791 5793 5795 5798 5801 5804 5807 5810 5813
5727 5727 5728 5728 5728 5728 5728 5728 5728 5729 5730 5730 5731 5732 5732 5731 5731 5730 5730 5730 5731 5730 5730 5730 5731 5731 5732 5733 5733 5735 5736 5737 5739 5741 5743 5744 5745 5748 5751 5754 5756 5758 5758 5759 5761 5763 5764 5766 5768 5769 5769 5770 5770 5771 5772 5773 5774 5775 5775 5775 5774 5774 5774 5774 5774 5774 5774 5774 5774 5774 5774 5775 5776 5777 5779 5781 5782 5785 5787 5790 5792 5795 5797 5800 5804 5807 5809
5723 5723 5723 5724 5723 5723 5723 5724 5724 5725 5725 5726 5727 5728 5728 5727 5726 5726 5726 5726 5726 5726 5726 5726 5726 5727 5728 5728 5729 5731 5732 5733 5735 5737 5739 5740 5743 5745 5748 5750 5752 5754 5755 5756 5758 5760 5761 5763 5765 5766 5767 5767 5768 5769 5769 5770 5771 5772 5773 5773 5772 5772 5772 5772 5772 5772 5772 5772 5772 5771 5771 5772 5773 5774 5776 5778 5780 5782 5785 5787 5790 5792 5795 5798 5801 5803 5806
5718 5719 5719 5719 5719 5719 5720 5720 5720 5721 5722 5722 5723 5723 5724 5723 5722 5722 5722 5721 5721 5722 5722 5722 5722 5723 5724 5725 5726 5727 5727 5729 5731 5733 5735 5738 5740 5742 5744 5745 5747 5749 5751 5752 5754 5756 5758 5759 5761 5763 5764 5765 5766 5767 5767 5768 5769 5770 5771 5771 5770 5770 5770 5769 5769 5769 5769 5770 5769 5769 5768 5769 5770 5771 5772 5774 5777 5780 5782 5784 5786 5789 5792 5795 5798 5801 5802
5715 5715 5715 5715 5716 5716 5716 5716 5717 5717 5718 5718 5719 5720 5719 5719 5719 5718 5718 5718 5718 5718 5718 5718 5719 5720 5721 5722 5723 5723 5723 5725 5728 5730 5733 5736 5738 5739 5740 5741 5743 5745 5747 5748 5750 5752 5755 5757 5759 5760 5761 5762 5764 5765 5765 5766 5767 5768 5769 5769 5768 5768 5768 5767 5767 5767 5767 5767 5767 5766 5766 5766 5767 5768 5769 5772 5774 5776 5778 5781 5783 5786 5789 5792 5795 5798 5800
5711 5711 5711 5712 5712 5712 5712 5713 5713 5714 5714 5715 5715 5716 5716 5715 5715 5715 5714 5714 5714 5715 5715 5715 5716 5717 5718 5719 5719 5720 5721 5722 5725 5727 5730 5732 5734 5735 5736 5738 5740 5742 5743 5745 5746 5749 5752 5754 5756 5758 5759 5760 5761 5762 5763 5764 5765 5766 5767 5767 5767 5766 5766 5765 5765 5765 5765 5765 5764 5764 5764 5765 5765 5766 5767 5769 5771 5774 5776 5778 5779 5782 5786 5789 5791 5793 5796
5707 5708 5708 5708 5708 5708 5709 5709 5710 5710 5711 5711 5712 5712 5712 5712 5711 5711 5711 5711 5711 5711 5711 5712 5714 5715 5715 5715 5716 5717 5717 5719 5722 5725 5727 5729 5729 5731 5732 5735 5737 5738 5740 5741 5744 5746 5749 5751 5753 5754 5755 5757 5758 5760 5761 5762 5763 5764 5765 5765 5765 5765 5764 5764 5764 5764 5763 5763 5763 5763 5763 5763 5763 5764 5765 5767 5770 5772 5773 5774 5775 5779 5784 5786 5786 5786 5789
5703 5704 5704 5704 5705 5705 5705 5706 5706 5707 5708 5708 5708 5708 5709 5709 5708 5708 5708 5708 5708 5708 5708 5709 5711 5712 5712 5712 5713 5713 5714 5716 5719 5722 5724 5725 5726 5727 5729 5732 5733 5735 5736 5738 5740 5743 5745 5747 5749 5750 5752 5753 5755 5757 5759 5760 5761 5763 5763 5763 5763 5763 5763 5763 5763 5763 5762 5762 5762 5762 5762 5761 5761 5762 5763 5765 5767 5769 5770 5772 5774 5776 5780 5783 5782 5781 5782
5700 5700 5701 5701 5701 5701 5702 5702 5703 5704 5704 5704 5705 5705 5705 5705 5705 5705 5704 5704 5705 5705 5705 5705 5707 5708 5708 5709 5710 5711 5712 5714 5716 5718 5720 5722 5723 5725 5727 5728 5730 5731 5733 5735 5737 5739 5741 5743 5745 5747 5748 5750 5752 5754 5756 5758 5760 5761 5762 5762 5762 5762 5762 5762 5762 5762 5761 5761 5761 5761 5761 5761 5760 5761 5762 5764 5765 5766 5767 5770 5772 5773 5776 5779 5780 5780 5780
5696 5697 5697 5698 5698 5698 5698 5699 5700 5700 5701 5701 5701 5702 5702 5702 5702 5702 5701 5701 5702 5702 5702 5702 5703 5704 5705 5705 5707 5708 5710 5711 5713 5715 5717 5718 5720 5722 5723 5725 5727 5728 5730 5732 5734 5736 5738 5740 5741 5743 5745 5747 5749 5751 5754 5756 5758 5759 5760 5760 5760 5761 5761 5761 5761 5761 5761 5761 5761 5761 5761 5761 5761 5760 5761 5762 5764 5765 5766 5768 5770 5772 5774 5777 5779 5781 5781
5693 5693 5694 5694 5695 5695 5695 5696 5696 5697 5697 5697 5698 5698 5699 5699 5699 5698 5698 5699 5699 5699 5699 5699 5699 5700 5701 5702 5703 5705 5707 5707 5709 5712 5713 5714 5716 5718 5720 5722 5724 5725 5727 5729 5731 5732 5734 5736 5738 5740 5742 5744 5746 5748 5751 5754 5756 5757 5758 5759 5759 5759 5759 5760 5760 5760 5760 5760 5761 5761 5762 5762 5762 5761 5761 5762 5763 5764 5766 5768 5769 5772 5774 5776 5778 5779 5780
5689 5690 5690 5691 5691 5692 5692 5693 5693 5693 5694 5694 5695 5695 5696 5696 5695 5695 5695 5695 5696 5696 5696 5696 5695 5696 5698 5699 5700 5701 5703 5704 5706 5708 5710 5711 5712 5714 5716 5719 5720 5721 5723 5725 5727 5729 5731 5733 5736 5738 5739 5741 5743 5746 5748 5751 5754 5755 5756 5757 5757 5758 5758 5759 5759 5759 5760 5760 5761 5762 5763 5763 5763 5763 5763 5763 5764 5765 5767 5768 5770 5772 5774 5776 5777 5778 5780
5686 5686 5687 5688 5688 5689 5689 5689 5690 5690 5690 5691 5691 5692 5692 5692 5692 5692 5692 5692 5692 5693 5693 5692 5692 5692 5694 5696 5697 5697 5698 5700 5701 5703 5705 5707 5709 5711 5713 5715 5716 5718 5720 5722 5724 5726 5728 5731 5733 5735 5736 5738 5741 5743 5746 5749 5752 5753 5754 5755 5756 5757 5757 5758 5758 5758 5759 5760 5760 5761 5763 5764 5764 5764 5765 5765 5766 5767 5768 5769 5771 5773 5775 5776 5777 5779 5781
5682 5683 5684 5684 5685 5686 5686 5686 5686 5687 5687 5687 5688 5688 5688 5688 5689 5689 5688 5688 5689 5689 5689 5689 5688 5688 5690 5692 5693 5693 5694 5696 5697 5699 5701 5704 5706 5707 5709 5711 5712 5714 5716 5718 5720 5723 5725 5727 5729 5731 5733 5736 5738 5741 5744 5747 5750 5751 5752 5754 5755 5756 5756 5757 5758 5758 5758 5759 5760 5761 5762 5763 5764 5764 5765 5766 5767 5768 5769 5770 5771 5773 5775 5777 5778 5780 5782
5679 5679 5680 5681 5682 5682 5683 5683 5683 5683 5683 5684 5684 5685 5685 5685 5685 5685 5685 5685 5685 5685 5685 5685 5685 5684 5686 5687 5688 5689 5690 5692 5693 5695 5697 5699 5702 5704 5705 5707 5709 5710 5712 5715 5716 5718 5721 5723 5725 5727 5729 5732 5735 5739 5742 5745 5748 5749 5750 5752 5753 5755 5756 5756 5757 5757 5757 5758 5759 5760 5761 5763 5763 5764 5765 5766 5767 5768 5770 5771 5772 5773 5775 5777 5779 5781 5782
5675 5676 5677 5678 5678 5679 5680 5680 5680 5680 5680 5680 5681 5681 5681 5681 5681 5681 5681 5681 5681 5681 5681 5682 5681 5681 5682 5683 5684 5685 5687 5688 5690 5692 5694 5696 5698 5700 5702 5704 5706 5708 5709 5711 5713 5715 5717 5719 5721 5723 5726 5729 5733 5736 5740 5742 5745 5746 5748 5750 5751 5753 5753 5754 5755 5756 5756 5757 5758 5760 5761 5762 5763 5764 5765 5766 5767 5769 5770 5771 5772 5774 5775 5777 5779 5780 5782
5671 5672 5673 5674 5675 5676 5676 5676 5676 5677 5677 5677 5677 5677 5677 5677 5677 5677 5677 5677 5677 5678 5678 5678 5678 5678 5679 5680 5680 5682 5683 5685 5687 5689 5691 5693 5695 5697 5699 5701 5703 5705 5706 5708 5710 5712 5714 5715 5717 5720 5722 5726 5730 5733 5736 5739 5741 5744 5746 5747 5749 5750 5751 5753 5754 5755 5756 5757 5758 5759 5760 5762 5763 5764 5765 5766 5767 5768 5770 5771 5772 5774 5775 5777 5778 5779 5781
5668 5669 5670 5671 5672 5672 5673 5673 5673 5673 5674 5674 5674 5674 5674 5674 5674 5674 5674 5674 5674 5674 5674 5675 5675 5675 5676 5677 5678 5679 5680 5682 5684 5686 5688 5689 5692 5694 5696 5697 5700 5701 5703 5705 5707 5709 5711 5712 5715 5717 5719 5723 5726 5729 5732 5735 5739 5741 5743 5745 5746 5748 5750 5752 5753 5754 5755 5756 5757 5758 5759 5761 5762 5763 5764 5766 5767 5768 5769 5770 5772 5773 5774 5775 5777 5778 5779
5665 5666 5667 5668 5669 5669 5670 5670 5670 5670 5670 5671 5671 5671 5671 5671 5670 5670 5670 5671 5671 5671 5672 5672 5672 5673 5673 5674 5675 5676 5678 5680 5681 5683 5685 5687 5689 5691 5693 5695 5697 5699 5700 5702 5704 5706 5707 5709 5712 5714 5717 5720 5722 5725 5729 5733 5736 5738 5740 5742 5744 5746 5748 5750 5751 5753 5754 5755 5756 5757 5759 5760 5762 5763 5764 5765 5766 5766 5768 5769 5770 5771 5772 5774 5775 5777 5778
5661 5662 5664 5665 5665 5666 5667 5667 5667 5667 5668 5668 5668 5668 5668 5668 5667 5667 5668 5668 5669 5669 5669 5669 5670 5671 5671 5672 5673 5674 5676 5677 5679 5680 5683 5685 5687 5688 5690 5692 5694 5695 5697 5699 5702 5704 5705 5706 5709 5711 5714 5717 5719 5722 5726 5730 5733 5735 5738 5740 5742 5744 5746 5748 5750 5751 5753 5754 5755 5756 5758 5759 5760 5761 5762 5763 5764 5765 5766 5767 5769 5770 5771 5772 5774 5775 5777
5658 5659 5661 5662 5662 5663 5664 5664 5665 5665 5665 5665 5665 5665 5665 5665 5665 5665 5666 5667 5667 5667 5668 5668 5668 5669 5669 5669 5671 5672 5673 5674 5676 5678 5680 5682 5684 5686 5687 5689 5690 5692 5694 5697 5700 5701 5703 5704 5707 5710 5712 5714 5717 5720 5723 5727 5730 5733 5735 5737 5740 5742 5744 5746 5748 5749 5751 5752 5753 5754 5755 5757 5758 5759 5760 5761 5763 5764 5765 5766 5767 5768 5769 5771 5772 5773 5775
5655 5656 5658 5659 5659 5660 5661 5661 5662 5662 5663 5663 5663 5663 5663 5663 5663 5664 5665 5665 5665 5666 5666 5666 5666 5667 5667 5668 5669 5670 5671 5672 5674 5676 5678 5680 5682 5683 5684 5686 5688 5690 5693 5695 5697 5699 5701 5703 5706 5709 5711 5713 5714 5717 5721 5724 5728 5730 5733 5735 5737 5739 5742 5744 5746 5747 5748 5750 5751 5752 5753 5755 5756 5757 5758 5760 5761 5762 5763 5764 5765 5767 5768 5769 5770 5771 5772
5652 5653 5655 5656 5656 5657 5658 5659 5659 5660 5660 5660 5660 5661 5661 5661 5662 5663 5663 5664 5664 5664 5664 5664 5665 5665 5665 5666 5667 5668 5669 5671 5672 5674 5676 5678 5679 5681 5683 5684 5687 5689 5691 5693 5695 5697 5700 5702 5704 5706 5708 5710 5712 5715 5719 5722 5725 5727 5730 5732 5735 5737 5739 5741 5743 5744 5746 5747 5749 5750 5751 5752 5753 5755 5756 5757 5759 5760 5761 5762 5764 5765 5766 5767 5768 5769 5770
5649 5651 5652 5653 5654 5655 5656 5656 5657 5657 5658 5658 5658 5659 5659 5660 5661 5662 5662 5662 5663 5663 5663 5663 5663 5664 5664 5665 5665 5666 5667 5669 5671 5673 5675 5677 5678 5680 5682 5683 5685 5688 5690 5692 5694 5697 5699 5701 5702 5704 5705 5707 5710 5713 5716 5719 5722 5725 5727 5730 5732 5735 5737 5739 5741 5742 5743 5745 5746 5748 5749 5750 5751 5752 5753 5755 5756 5757 5759 5760 5761 5763 5764 5765 5766 5767 5768
5647 5648 5650 5651 5651 5652 5653 5654 5654 5655 5655 5656 5657 5657 5658 5659 5660 5661 5661 5661 5662 5662 5662 5662 5662 5663 5663 5664 5664 5665 5666 5668 5670 5672 5674 5676 5678 5680 5682 5683 5685 5687 5690 5692 5694 5696 5697 5699 5701 5702 5704 5706 5708 5711 5714 5717 5720 5722 5725 5727 5730 5732 5735 5736 5738 5739 5741 5742 5743 5745 5746 5748 5749 5750 5751 5752 5753 5755 5756 5758 5759 5760 5762 5763 5764 5765 5765
5645 5646 5647 5648 5649 5650 5651 5651 5652 5653 5654 5654 5655 5656 5657 5658 5658 5659 5659 5660 5661 5661 5661 5661 5662 5662 5663 5664 5665 5666 5667 5669 5671 5673 5674 5676 5678 5680 5682 5683 5685 5687 5690 5692 5693 5694 5696 5697 5699 5700 5702 5704 5706 5709 5712 5715 5718 5720 5723 5725 5728 5730 5732 5733 5735 5736 5738 5739 5741 5742 5744 5745 5746 5747 5748 5749 5751 5752 5754 5755 5756 5757 5759 5760 5761 5762 5762
5643 5644 5645 5646 5647 5648 5649 5649 5650 5651 5652 5653 5654 5655 5655 5656 5656 5657 5658 5659 5660 5661 5661 5661 5661 5662 5663 5664 5665 5666 5668 5670 5671 5673 5675 5677 5679 5680 5682 5683 5685 5687 5689 5691 5692 5693 5694 5695 5697 5699 5701 5703 5705 5708 5711 5713 5716 5719 5721 5723 5725 5727 5729 5730 5732 5733 5735 5737 5738 5739 5740 5742 5743 5744 5746 5747 5748 5749 5751 5752 5753 5754 5756 5757 5758 5758 5759
5641 5642 5643 5644 5645 5646 5647 5648 5649 5649 5650 5651 5652 5653 5654 5654 5655 5656 5657 5658 5659 5660 5661 5661 5661 5662 5663 5664 5665 5667 5669 5670 5672 5673 5675 5677 5679 5680 5682 5684 5685 5687 5688 5690 5690 5691 5692 5694 5696 5698 5700 5702 5704 5707 5710 5712 5715 5717 5719 5721 5723 5725 5726 5728 5729 5731 5732 5734 5735 5736 5737 5739 5740 5741 5743 5744 5745 5746 5747 5749 5750 5751 5752 5753 5754 5755 5755
5639 5640 5641 5642 5643 5644 5645 5646 5647 5647 5648 5649 5650 5651 5652 5653 5655 5656 5656 5657 5658 5659 5660 5661 5661 5662 5663 5664 5665 5667 5669 5671 5673 5674 5675 5677 5678 5680 5682 5683 5685 5686 5687 5688 5689 5691 5692 5694 5696 5698 5700 5702 5704 5706 5709 5711 5713 5715 5717 5719 5721 5722 5724 5725 5727 5728 5730 5731 5732 5734 5735 5736 5737 5738 5740 5741 5742 5743 5744 5746 5747 5748 5749 5750 5750 5751 5751
5637 5638 5639 5640 5641 5642 5643 5644 5645 5646 5647 5648 5649 5650 5652 5653 5654 5655 5656 5657 5657 5658 5659 5660 5661 5662 5663 5664 5666 5667 5669 5671 5673 5674 5675 5677 5678 5680 5681 5683 5684 5685 5686 5688 5689 5691 5693 5694 5696 5698 5700 5701 5703 5705 5707 5709 5711 5713 5715 5717 5718 5720 5722 5723 5724 5726 5727 5728 5729 5731 5732 5733 5734 5735 5737 5738 5739 5740 5741 5742 5743 5744 5745 5746 5747 5747 5747
5635 5636 5637 5638 5639 5640 5642 5643 5643 5644 5645 5647 5648 5649 5651 5653 5654 5654 5655 5656 5657 5658 5658 5659 5660 5661 5662 5664 5665 5667 5669 5670 5672 5674 5675 5677 5678 5679 5680 5682 5683 5685 5686 5688 5689 5691 5692 5694 5695 5697 5699 5701 5702 5704 5706 5708 5709 5711 5713 5715 5716 5718 5719 5721 5722 5723 5724 5725 5727 5728 5729 5730 5731 5732 5734 5735 5736 5737 5738 5739 5740 5741 5742 5743 5743 5743 5743
5633 5634 5635 5637 5638 5639 5640 5641 5642 5643 5645 5646 5647 5649 5650 5652 5652 5653 5654 5655 5656 5657 5658 5659 5660 5661 5662 5663 5665 5666 5668 5670 5672 5673 5675 5676 5677 5678 5679 5681 5683 5684 5686 5687 5688 5690 5692 5693 5695 5696 5698 5700 5701 5703 5704 5706 5708 5709 5711 5713 5714 5716 5717 5718 5719 5721 5722 5723 5724 5725 5726 5727 5729 5730 5731 5732 5733 5734 5735 5737 5737 5738 5739 5739 5739 5739 5740